Location: Newark
(45.0500°N, 41.9667°E)
Time: 22:23:57
(UTC+00:00)

Starlink (trailer) - Pass Details

Date: 24 July 2019
Orbit: 549 x 550 km, 53.0° (Epoch: 20 August)

Event Time Altitude Azimuth Distance (km) Brightness Sun altitude
Exits shadow 21:10:03 38° 63° (ENE) 854 4.7 -25.1°
Drops below altitude 10° 21:12:40 10° 59° (ENE) 1,827 6.6 -25.2°
Sets 21:14:55 0° 58° (ENE) 2,723 7.6 -25.2°
